Regional Weather Roundup
Issued by NWS Upton, NY

Current Version | Previous Version | Text Only | Print | Product List | Glossary On
Versions: 1 2 3 4 5 6 7 8 9 10 11 12 13 14 15 16 17 18 19 20 21 22 23 24 25 26 27 28 29 30 31 32 33 34 35 36 37 38 39 40 41 42 43 44 45 46 47 48 49 50
000 ASUS41 KOKX 060308 RWROKX REGIONAL WEATHER ROUNDUP NATIONAL WEATHER SERVICE NEW YORK NY 1100 PM EDT SUN JUL 05 2015 NOTE: "FAIR" INDICATES FEW OR NO CLOUDS BELOW 12,000 FEET WITH NO SIGNIFICANT WEATHER AND/OR OBSTRUCTIONS TO VISIBILITY. NYZ071-072-176-178-NJZ106-104-060400- NEW YORK CITY METRO AREA CITY SKY/WX TMP DP RH WIND PRES REMARKS CENTRAL PARK PTCLDY 75 64 68 CALM 30.17R LAGUARDIA APRT MOCLDY 75 64 68 S6 30.13S KENNEDY INTL MOCLDY 72 66 81 S6 30.15R NEWARK/LIBERTY PTCLDY 75 67 76 S6 30.13S BRNX BOT. GARD N/A 70 64 83 E1 30.14F TETERBORO PTCLDY 72 64 76 CALM 30.13R $$ NYZ177-179-078>081-060400- LONG ISLAND NEW YORK CITY SKY/WX TMP DP RH WIND PRES REMARKS FARMINGDALE PTCLDY 72 65 78 SW6 30.15S ISLIP MOCLDY 70 63 78 SW7 30.14R SHIRLEY PTCLDY 70 64 81 SW5 30.16S WESTHAMPTON PTCLDY 69 66 90 SW3 30.17S MONTAUK POINT N/A 70 64 81 SW6 30.17R $$ NYZ052-065-067-060400- HUDSON VALLEY CITY SKY/WX TMP DP RH WIND PRES REMARKS WHITE PLAINS PTCLDY 68 64 87 CALM 30.15R NEWBURGH CLEAR 70 64 83 W6 30.16R MONTGOMERY PTCLDY 66 63 90 CALM 30.14R POUGHKEEPSIE PTCLDY 67 63 87 SE3 30.13R ALBANY PTCLDY 69 59 70 CALM 30.14R $$ NJZ001-105-106-008-010-013-015-019>022-104-060400- NEW JERSEY CITY SKY/WX TMP DP RH WIND PRES REMARKS NEWARK/LIBERTY PTCLDY 75 67 76 S6 30.13S TETERBORO PTCLDY 72 64 76 CALM 30.13R CALDWELL PTCLDY 72 62 71 CALM 30.15R MORRISTOWN PTCLDY 66 61 82 CALM 30.15R SOMERVILLE MOCLDY 66 63 90 CALM 30.12S SUSSEX PTCLDY 65 63 93 CALM 30.16R ANDOVER N/A 65 63 93 CALM 30.16S TRENTON MOCLDY 74 65 73 SW3 30.14R MILLVILLE MOCLDY 69 67 93 CALM 30.16R ATLANTIC CITY MOCLDY 72 68 87 S5 30.16R WRIGHTSTOWN MOCLDY 70 67 90 S7 30.13R TOMS RIVER PTCLDY 68 63 83 CALM 30.16R BELMAR PTCLDY 72 63 73 SW3 30.16R $$ PAZ047>061-062-071-060400- EASTERN PENNSYLVANIA CITY SKY/WX TMP DP RH WIND PRES REMARKS PHILADELPHIA MOCLDY 76 67 73 SW6 30.15R ALLENTOWN MOCLDY 68 64 87 N3 30.14S SCRANTON PTCLDY 67 58 72 E6 30.16S $$ CTZ002-004>006-009-010-012-RIZ004-006-007-MAZ004-011-015-060400- SOUTHERN NEW ENGLAND IN CT CITY SKY/WX TMP DP RH WIND PRES REMARKS BRADLEY INTL PTCLDY 70 61 73 CALM 30.13R HARTFORD CLEAR 71 64 78 S5 30.14R DANBURY MOCLDY 70 61 73 CALM 30.17R WTRBRY/OXFORD MOCLDY 70 61 73 CALM 30.19R BRIDGEPORT PTCLDY 72 65 78 SW5 30.15R MERIDEN CLEAR 69 64 84 CALM 30.15R NEW HAVEN CLEAR 71 65 81 SW3 30.16R CHESTER FAIR 68 64 88 SW6 30.17R GROTON CLEAR 69 63 81 W6 30.15R WILLIMANTIC CLEAR 67 63 87 CALM 30.15R IN RI CITY SKY/WX TMP DP RH WIND PRES REMARKS PROVIDENCE CLEAR 71 62 73 W7 30.15R BLOCK ISLAND CLEAR 66 63 88 SW10 30.16R WESTERLY CLEAR 68 64 87 SW3 30.16R IN MA CITY SKY/WX TMP DP RH WIND PRES REMARKS BOSTON CLEAR 74 61 63 SW9 30.12R WORCESTER CLEAR 69 58 67 W8 30.17R WESTFIELD CLEAR 64 62 93 CALM 30.14R PROVINCETOWN CLEAR 64 9 11 SW7 30.12S NANTUCKET CLEAR 65 62 90 SW7 30.14S $$ ANZ330-335-338-340-345-350-353-355-060400- COASTAL MARINE OBSERVATIONS STATION/POSITION TIME SKY/WX TEMP WIND PRES VSBY WAVE AIR SEA DIR/SP/G HT/PER (UTC) (F) (DEG/KT/KT) (MB) (MI) (FT/S) NY HARB ENTRANCE 0250 72 70 200/ 10/ 12 1020.3 3/ 8 4S FIRE IS 0203 70 N/A 3/ 8 20S FIRE ISLAND 0250 71 70 210/ 8/ 10 1020.6 3/ 7 GREAT SOUTH BAY 0200 72 76 240/ 10/ 14 N/A 23SW MTP 0250 70 69 240/ 10/ 12 1020.8 3/ 8 HUDSON CANYON NOT AVBL KINGS POINT 0200 73 69 180/ 5/ 7 1019.9 CENTRAL LI SOUND NOT AVBL EASTERN LI SOUND 0200 67 64 120/ 2/ 2 N/A ROBBINS REEF 0200 74 170/ 10/ 11 1019.4 $$ >>>>>>>>>>>>>>>>>>>>>>>>>>>> KEY <<<<<<<<<<<<<<<<<<<<<<<<<<< > < > SKY/WX - SKY CONDITION/PRESENT WEATHER < > TMP - TEMPERATURE IN FAHRENHEIT < > DP - DEWPOINT IN FAHRENHEIT < > RH - RELATIVE HUMIDITY IN PERCENT < > WIND - DIRECTION AND SPEED IN MPH < > PRES - MEAN SEA LEVEL PRESSURE IN INCHES OF HG < > WCI - WIND CHILL INDEX < > VSB - VISIBILITY IN MILES < > HX - HEAT INDEX < > TC - TEMPERATURE IN CELSIUS < > VRB - VARIABLE WIND DIRECTION < > < >>>>>>>>>>>>>>>>>>>>>>>>>>>> KEY <<<<<<<<<<<<<<<<<<<<<<<<<<<

USA.gov is the U.S. government's official web portal to all federal, state and local government web resources and services.